Regional Weather Roundup
Issued by NWS Jackson, KY

Home | Current Version | Previous Version | Graphics & Text | Print | Product List | Glossary On
Versions: 1 2 3 4 5 6 7 8 9 10 11 12 13 14 15 16 17 18 19 20 21 22 23 24 25 26 27 28
000
ASUS43 KJKL 202310
RWRJKL

EAST KENTUCKY HOURLY WEATHER ROUNDUP
NATIONAL WEATHER SERVICE JACKSON KY
600 PM EST FRI JAN 20 2017

NOTE: "FAIR" INDICATES FEW OR NO CLOUDS BELOW 12,000 FEET WITH
NO SIGNIFICANT WEATHER AND/OR OBSTRUCTIONS TO VISIBILITY.

* THESE REPORTS ARE NOT UNDER NWS QUALITY CONTROL AND MAY NOT
  REPORT WEATHER SUCH AS PRECIPITATION AND FOG.

KYZ079-080-083-085-087-088-110-112-115-119-120-210000
...EASTERN KENTUCKY...

CITY           SKY/WX    TMP DP  RH WIND       PRES   REMARKS
JACKSON        PTCLDY    61  49  64 CALM      29.78R
LONDON         CLEAR     61  45  55 CALM      29.78R
SOMERSET*      PTCLDY    59  46  63 CALM      29.78S
MONTICELLO*    MOCLDY    58  49  72 NE9       29.79R
WILLIAMSBURG*  CLEAR     63  46  55 CALM      29.78S
MIDDLESBORO*   CLEAR     63  50  63 SW5       29.80S
HARLAN APT*    PTCLDY    61  45  55 S3        29.80R
PIKE CO APT*     N/A     62  48  58 CALM      29.79R
BIG SANDY APT* CLEAR     63  50  62 SW3       29.78R
MOREHEAD APT*  PTCLDY    61  48  63 SW6       29.78R
ASHLAND*       CLEAR     61  48  63 CALM      29.74R
$$

KYZ035-036-041-042-044-050-067-078-099-210000
...CENTRAL KENTUCKY...

CITY           SKY/WX    TMP DP  RH WIND       PRES   REMARKS
MT STERLING*   PTCLDY    59  50  72 W6        29.79R
FLEMING/MASON* CLEAR     55  48  77 SW6       29.78R
DANVILLE*      PTCLDY    55  46  71 CALM      29.78R
LEXINGTON      PTCLDY    57  47  69 SW5       29.77R
FRANKFORT      CLOUDY    58  47  66 S7        29.75R
LOUISVILLE     MOCLDY    61  48  62 S8        29.72S
LEBANON*         N/A     59  48  67 CALM      29.76S
GLASGOW*       PTCLDY    62  51  67 CALM      29.73S
BOWLING GREEN  PTCLDY    63  52  67 S7        29.71F
$$

KYZ091>093-OHZ055-061-077-WVZ005-015-034-035-042-210000
...SOUTHERN OHIO/WEST VIRGINIA...

CITY           SKY/WX    TMP DP  RH WIND       PRES   REMARKS
COVINGTON      MOCLDY    57  48  72 SW7       29.73R
COLUMBUS       MOCLDY    58  49  72 SW5       29.73R
DAYTON         MOCLDY    48  45  89 SW6       29.74R
WILMINGTON     PTCLDY    53  48  83 SW6       29.73R
HUNTINGTON     CLEAR     63  48  58 CALM      29.76R
CHARLESTON     PTCLDY    61  49  64 CALM      29.78R
PINEVILLE*     CLEAR     55  46  71 MISG      29.85R
BECKLEY        CLOUDY    57  45  64 SW6       29.82R
BLUEFIELD      PTCLDY    54  44  69 W9        29.84R
LOGAN CO APT*  MOCLDY    61  48  63 CALM      29.78R
$$

VAZ002-007-008-TNZ017-027-036-066-071-210000
...SOUTHWEST VIRGINIA/EAST TENNESSEE...

CITY           SKY/WX    TMP DP  RH WIND       PRES   REMARKS
WISE*          CLEAR     55  45  67 SW12      29.84R
JONESVILLE*      N/A     59  50  72 CALM      29.83R
ABINGDON*      PTCLDY    59  52  77 CALM      29.84R
BRISTOL        PTCLDY    60  48  64 W5        29.83R
MORRISTOWN*    CLEAR     63  52  67 NW3       29.80S
SEVIERVILLE*   CLEAR     64  48  55 W3        29.79S
KNOXVILLE      MOCLDY    63  49  60 SW5       29.78S
LAFOLLETTE*    PTCLDY    61  50  67 CALM      29.81S
OAK RIDGE      CLEAR     64  49  57 S3        29.79S
CROSSVILLE     CLEAR     60  48  64 S6        29.79S
NASHVILLE      MOCLDY    64  51  62 S9        29.73S
$$

...KEY TO REMARKS...
VSB - VISIBILITY IN MILES
WCI - WIND CHILL INDEX
HX  - HEAT INDEX

$$




USA.gov is the U.S. government's official web portal to all federal, state and local government web resources and services.